RH
22 21 20 20 21 20 21 20 21 21 21 21 23 25 27 26 26 25 25 24 24 23 22 20 19 19 20 19 18 18 16 15 14 13 10 9 9 10 11 14 14 14 14 15
21 23 21 21 20 19 19 22 25 23 21 22 23 25 28 28 26 26 27 28 27 26 24 22 22 21 21 20 19 20 17 16 15 13 11 10 10 11 13 13 14 14 16 17
22 26 27 25 24 23 25 24 25 22 23 22 25 28 29 30 29 30 31 31 31 29 26 24 23 22 22 21 21 21 18 17 15 13 10 9 10 11 11 12 13 14 15 15
27 27 28 27 27 26 25 26 26 27 23 30 27 38 32 31 32 34 34 34 33 30 28 25 23 23 22 23 23 22 19 16 14 12 10 10 11 11 11 12 14 15 16 16
28 29 28 29 31 32 29 27 28 27 28 30 33 40 28 33 36 36 37 37 35 32 29 26 25 25 25 24 23 22 19 16 14 11 10 10 11 12 13 14 15 15 16 16
33 31 31 32 33 32 31 30 30 33 33 42 33 38 31 38 35 37 39 38 37 33 30 28 27 27 27 25 24 23 18 15 13 11 10 11 12 13 14 14 15 16 17 17
34 36 36 34 34 33 31 35 49 45 46 45 37 40 32 33 36 39 38 38 37 33 30 30 29 30 29 25 25 23 17 15 13 11 11 11 12 14 14 15 16 18 18 18
39 39 35 34 33 34 35 37 46 38 63 59 41 48 36 32 35 39 41 41 37 34 31 31 31 32 30 27 27 22 17 15 12 11 11 11 13 15 15 16 18 19 20 21
42 39 36 35 33 30 33 36 34 48 58 51 43 38 33 35 39 42 43 43 39 34 32 32 34 33 32 28 28 21 17 15 12 11 11 12 12 14 15 16 17 18 20 21
36 46 40 38 35 33 33 31 35 48 39 56 55 44 39 42 43 44 44 43 39 34 34 35 35 34 34 31 27 20 17 14 12 12 11 11 11 12 13 13 14 15 17 19
37 40 46 42 42 42 42 43 45 44 56 64 65 55 40 40 44 45 43 43 40 34 36 39 38 37 36 32 26 20 17 14 13 12 11 10 10 12 13 12 13 14 15 16
38 45 56 49 42 40 40 42 45 56 50 58 62 46 39 41 45 44 46 45 40 36 38 43 43 43 37 31 25 20 17 14 13 12 11 10 10 12 12 12 12 13 13 15
41 46 55 53 47 45 46 46 47 56 59 57 57 43 41 39 42 44 48 46 40 39 41 48 49 45 38 30 24 20 17 14 13 12 11 10 10 13 12 12 11 12 13 15
41 50 45 45 51 53 52 50 52 54 61 57 48 45 41 44 47 49 51 48 44 41 43 49 51 47 37 28 24 20 17 14 13 12 11 9 10 13 12 11 11 12 13 15
45 46 52 55 50 55 54 55 57 55 49 52 41 48 39 51 54 48 47 47 46 46 46 48 52 48 34 28 24 19 17 14 13 12 10 9 11 13 12 11 11 13 14 15
54 53 55 53 54 51 55 57 56 53 56 54 50 47 50 50 49 48 46 46 46 48 49 49 51 45 31 27 23 19 16 14 13 12 10 10 12 13 12 11 11 13 14 16
59 65 65 62 60 65 66 48 50 52 54 53 52 42 48 50 50 48 47 47 48 51 50 49 48 40 30 27 22 19 16 14 13 12 11 11 13 14 12 12 12 13 14 16
68 67 71 76 75 73 46 48 46 46 46 47 47 45 49 48 46 46 47 49 49 50 49 46 45 36 30 27 22 19 16 14 14 12 11 12 14 14 13 13 12 13 14 16
74 75 78 78 77 58 55 49 52 55 48 46 46 46 49 49 48 45 48 49 49 46 43 42 39 32 29 26 22 19 17 15 14 12 11 12 15 15 14 13 13 14 15 16
79 79 75 84 79 70 47 48 49 52 52 45 50 49 51 53 52 46 44 45 47 45 42 39 34 32 31 26 22 19 17 15 14 12 12 13 15 16 15 15 15 16 16 18
89 86 76 82 79 63 50 49 51 62 47 48 49 49 52 51 47 45 44 43 45 43 39 35 34 32 30 25 22 19 17 16 14 13 13 14 15 16 17 16 16 17 18 19
80 83 81 84 86 68 47 50 55 52 52 50 51 53 53 49 48 44 45 43 42 40 36 35 34 32 30 25 22 20 18 17 16 14 14 15 16 16 18 18 17 17 18 19
77 66 69 71 62 58 53 52 53 54 57 56 55 55 56 50 48 43 44 43 43 40 35 35 33 33 30 25 22 21 19 17 17 16 16 16 18 16 18 18 19 18 18 18
76 74 72 76 57 62 61 59 59 60 60 62 62 61 63 52 48 45 44 43 41 37 36 36 34 34 29 25 23 22 20 18 18 17 17 17 19 17 16 18 19 20 20 20
71 76 77 73 64 66 62 64 66 67 69 72 68 67 64 55 48 44 44 43 38 35 37 36 35 33 30 26 24 23 21 19 19 20 19 18 19 19 16 17 19 20 21 22
67 64 70 59 57 66 63 68 70 68 69 71 70 66 60 53 50 44 42 41 40 37 37 37 36 36 33 28 27 26 23 21 21 22 21 22 19 18 16 15 17 20 21 22